Torna al catalogo

COSMOS 1275 DEB

LostPO
NORAD 42131·DEBRIS·🇷🇺 Russia

Lanciato Jun 4, 1981 da Plesetsk Cosmodrome

Loading…

Prossimi Passaggi (prossime 24 ore)

TLE

ObsoletoSource: Space-Track

Epoca: Oct 27, 2024, 07:15 UTC

1 42131U 81053QT  24301.30213918  .00033845  00000-0  98006-2 0  9993
2 42131  82.8749 135.1696 0019025 318.6456 221.6378 14.44175064568411

Traccia COSMOS 1275 DEB in tempo reale con AllMySat

Download on the App Store